GW0441 Weather Reports


Display with metric or nautical units.
time (UTC)temp
F
wind
direction
speed
MPH
gust
MPH
rain 1hr
in
rain 24hr
in
rain mn
in
humidity
%
barometer
mb
20260510033054 76 98 12.0 16.0 0.00 0.00 0.00 66 1008.0
20260510031547 76 76 14.0 17.0 0.00 0.00 0.00 65 1007.7
20260510030048 77 91 12.0 15.0 0.00 0.00 0.00 64 1007.3
20260510024545 78 90 11.0 17.0 0.00 0.00 0.00 63 1006.9
20260510023045 78 107 12.0 17.0 0.00 0.00 0.00 62 1006.6
20260510021637 78 110 12.0 16.0 0.00 0.00 0.00 61 1006.5
20260510020051 79 109 12.0 16.0 0.00 0.00 0.00 61 1005.9
20260510014555 79 107 11.0 17.0 0.00 0.00 0.00 60 1005.6
20260510013057 80 113 15.0 18.0 0.00 0.00 0.00 59 1005.3
20260510011545 81 103 15.0 18.0 0.00 0.00 0.00 58 1005.4
20260510010054 82 105 15.0 18.0 0.00 0.00 0.00 55 1005.6
20260510004548 83 113 14.0 19.0 0.00 0.00 0.00 51 1005.7
20260510003049 84 110 14.0 19.0 0.00 0.00 0.00 50 1005.4
20260510001545 84 113 16.0 19.0 0.00 0.00 0.00 50 1005.2
20260510000043 85 128 16.0 19.0 0.00 0.00 0.00 48 1005.3
20260509234543 85 127 17.0 19.0 0.00 0.00 0.00 47 1005.4
20260509233048 86 120 17.0 19.0 0.00 0.00 0.00 46 1005.7
20260509231552 86 116 16.0 18.0 0.00 0.00 0.00 45 1005.7
20260509230052 85 119 14.0 17.0 0.00 0.00 0.00 46 1006.4
20260509224544 87 100 15.0 18.0 0.00 0.00 0.00 46 1006.2
20260509223044 89 128 14.0 19.0 0.00 0.00 0.00 42 1006.2
20260509221549 90 113 16.0 18.0 0.00 0.00 0.00 41 1006.6
20260509220051 89 124 11.0 17.0 0.00 0.00 0.00 41 1006.7
20260509214546 90 112 14.0 18.0 0.00 0.00 0.00 40 1006.8
20260509213104 90 119 10.0 17.0 0.00 0.00 0.00 42 1006.9
20260509211549 90 148 14.0 18.0 0.00 0.00 0.00 41 1007.3
20260509210050 89 121 9.0 17.0 0.00 0.00 0.00 43 1007.6
20260509204544 89 127 10.0 18.0 0.00 0.00 0.00 43 1008.1
20260509203043 89 133 11.0 17.0 0.00 0.00 0.00 43 1008.6
20260509201544 89 182 12.0 17.0 0.00 0.00 0.00 43 1008.8
20260509200053 89 163 12.0 17.0 0.00 0.00 0.00 43 1009.0
20260509194555 88 125 9.0 16.0 0.00 0.00 0.00 44 1009.2
20260509193046 89 130 6.0 16.0 0.00 0.00 0.00 44 1009.4
20260509191547 88 128 7.0 16.0 0.00 0.00 0.00 44 1009.6
20260509190046 88 186 6.0 14.0 0.00 0.00 0.00 44 1009.8
20260509184557 87 0 4.0 10.0 0.00 0.00 0.00 44 1010.1
20260509183053 86 0 5.0 14.0 0.00 0.00 0.00 46 1010.4
20260509181554 87 0 0.0 10.0 0.00 0.00 0.00 46 1010.6
20260509180055 85 157 4.0 11.0 0.00 0.00 0.00 49 1010.5
20260509174551 84 93 7.0 14.0 0.00 0.00 0.00 52 1010.8
20260509173102 84 0 6.0 13.0 0.00 0.00 0.00 53 1011.3
20260509171547 83 138 7.0 12.0 0.00 0.00 0.00 54 1011.7
20260509170047 82 0 3.0 14.0 0.00 0.00 0.00 54 1012.1
20260509164550 81 115 6.0 12.0 0.00 0.00 0.00 56 1012.4
20260509163053 80 167 1.0 6.0 0.00 0.00 0.00 57 1012.5
20260509161557 79 76 3.0 11.0 0.00 0.00 0.00 61 1012.5
20260509160044 77 130 3.0 8.0 0.00 0.00 0.00 64 1012.7
20260509154552 76 84 4.0 9.0 0.00 0.00 0.00 66 1012.7
20260509153055 75 40 2.0 8.0 0.00 0.00 0.00 67 1012.7
20260509151543 74 22 3.0 9.0 0.00 0.00 0.00 67 1012.6
20260509150049 73 0 1.0 8.0 0.00 0.00 0.00 70 1012.7
20260509144550 72 106 4.0 9.0 0.00 0.00 0.00 74 1012.9
20260509143048 70 113 4.0 8.0 0.00 0.00 0.00 77 1013.0
20260509141545 68 82 5.0 9.0 0.00 0.00 0.00 82 1012.6
20260509140055 66 82 5.0 8.0 0.00 0.00 0.00 84 1012.8
20260509134546 65 74 3.0 5.0 0.00 0.00 0.00 91 1012.8
20260509133051 63 0 0.0 0.0 0.00 0.00 0.00 93 1012.7
20260509131545 62 0 0.0 0.0 0.00 0.00 0.00 94 1012.5
20260509130044 61 0 0.0 0.0 0.00 0.00 0.00 94 1012.5
20260509124552 60 0 0.0 0.0 0.00 0.00 0.00 94 1012.3
20260509123050 58 0 0.0 0.0 0.00 0.00 0.00 94 1012.1
20260509121549 57 0 0.0 0.0 0.00 0.00 0.00 94 1011.9
20260509120047 55 0 0.0 0.0 0.00 0.00 0.00 93 1011.8
20260509114543 56 0 0.0 0.0 0.00 0.00 0.00 92 1011.6
20260509113051 57 0 0.0 1.0 0.00 0.00 0.00 93 1011.3
20260509111553 57 0 0.0 1.0 0.00 0.00 0.00 93 1011.1
20260509110050 57 0 0.0 0.0 0.00 0.00 0.00 93 1010.9
20260509104546 58 0 0.0 1.0 0.00 0.00 0.00 92 1010.9
20260509103052 58 0 3.0 6.0 0.00 0.00 0.00 93 1010.6
20260509101550 58 350 3.0 8.0 0.00 0.00 0.00 92 1010.4
20260509100045 58 355 5.0 9.0 0.00 0.00 0.00 92 1010.1
20260509094555 58 9 5.0 8.0 0.00 0.00 0.00 92 1010.0
20260509093044 59 360 6.0 9.0 0.00 0.00 0.00 92 1010.0
20260509091554 59 5 5.0 9.0 0.00 0.00 0.00 91 1010.3
20260509090053 60 0 0.0 1.0 0.00 0.00 0.00 90 1010.3
20260509084558 60 0 0.0 0.0 0.00 0.00 0.00 88 1010.4
20260509083047 60 0 0.0 1.0 0.00 0.00 0.00 88 1010.5
20260509081545 60 0 0.0 1.0 0.00 0.00 0.00 86 1010.5
20260509080048 61 0 0.0 0.0 0.00 0.00 0.00 85 1010.5
20260509074608 61 0 0.0 0.0 0.00 0.00 0.00 85 1010.8
20260509073103 61 0 0.0 0.0 0.00 0.00 0.00 84 1011.0
20260509071555 62 161 4.0 7.0 0.00 0.00 0.00 84 1011.0
20260509070048 63 148 4.0 9.0 0.00 0.00 0.00 83 1011.0
20260509064543 64 0 0.0 5.0 0.00 0.00 0.00 82 1011.1
20260509063059 64 155 3.0 9.0 0.00 0.00 0.00 82 1010.9
20260509061540 65 150 4.0 9.0 0.00 0.00 0.00 83 1010.9
20260509060104 65 168 4.0 6.0 0.00 0.00 0.00 83 1011.1
20260509054545 65 161 3.0 6.0 0.00 0.00 0.00 84 1011.2
20260509053054 66 0 0.0 0.0 0.00 0.00 0.00 84 1011.3
20260509051547 66 0 0.0 9.0 0.00 0.00 0.00 85 1010.9
20260509050043 66 172 6.0 14.0 0.00 0.00 0.00 84 1011.3
20260509044543 67 188 10.0 16.0 0.00 0.00 0.00 86 1011.4
20260509043051 67 144 12.0 19.0 0.00 0.00 0.00 83 1010.8
20260509041544 67 130 8.0 15.0 0.00 0.00 0.00 81 1010.9
20260509034542 71 94 13.0 17.0 0.00 0.00 0.00 78 1010.3